Regional Weather Roundup
Issued by NWS State College, PA

Home | Current Version | Previous Version | Graphics & Text | Print | Product List | Glossary On
Versions: 1 2 3 4 5 6 7 8 9 10 11 12 13 14 15 16 17 18 19 20 21 22 23 24 25 26 27 28 29 30 31 32 33 34 35 36 37 38 39 40 41 42 43 44 45 46 47 48 49 50
000
ASUS41 KCTP 301303
RWRCTP

REGIONAL WEATHER ROUNDUP
NATIONAL WEATHER SERVICE STATE COLLEGE PA
900 AM EDT TUE SEP 30 2014

Note: "fair" indicates few or no clouds below 12,000 feet with no
significant weather and/or obstructions to visibility.

* = STATION THAT DOES NOT REPORT PRECIPITATION /E.G. RAIN...SNOW...ETC/
    THUNDER OR FOG.

PAZ002>004-007>009-013>016-020>023-029>032-301400-
WESTERN PENNSYLVANIA

CITY           SKY/WX    TMP DP  RH WIND       PRES   REMARKS
ERIE           RAIN      61  57  87 NW5       29.92R FOG
MEADVILLE      PTSUNNY   57  54  89 NW6       29.93R
FRANKLIN*      MOSUNNY   54  52  94 CALM      29.93S
NEW CASTLE       N/A     55  55 100 CALM      29.92R FOG
BEAVER COUNTY  SUNNY     57  55  94 CALM      29.91R FOG
BUTLER*        PTSUNNY   55  54  94 CALM      29.93S
PITTSBURGH INT MOSUNNY   56  55  97 S3        29.90S
PITTSBURGH     SUNNY     59  56  89 S7        29.91S FOG
INDIANA*       SUNNY     61  57  88 CALM      29.96S
LATROBE        MOSUNNY   59  59 100 CALM      29.93S
WASHINGTON CO* SUNNY     57  57 100 CALM      29.93S
$$

PAZ004>006-010>012-017>019-024>028-033>037-041-042-045-046-049>053-301400-
CENTRAL PENNSYLVANIA

CITY           SKY/WX    TMP DP  RH WIND       PRES   REMARKS
BRADFORD       FOG       51  50  96 CALM      29.94S VSB 1/2
DUBOIS         SUNNY     59  56  89 CALM      29.92S
CLEARFIELD     FOG       51  51 100 E3        29.94S VSB<1/4
JOHNSTOWN      SUNNY     61  55  81 SW6       29.95S
ALTOONA        SUNNY     62  58  86 CALM      29.94R
STATE COLLEGE  FOG       55  55 100 CALM      29.94R VSB 1/4
WILLIAMSPORT   CLOUDY    59  57  93 CALM      29.93R FOG
SELINSGROVE    FOG       58  57  97 CALM      29.95R VSB 1/4
FT INDIANTOWN  CLOUDY    62  62 100 E1        29.95R FOG
CAPITAL CITY   CLOUDY    63  61  93 E6        29.95R FOG
HARRISBURG     FOG       60  60 100 E6        29.94R VSB 1/4
YORK           CLOUDY    61  61 100 SW6       29.95R FOG
$$

PAZ038>040-043-044-047-048-054-055-060>062-067>071-301400-
EASTERN PENNSYLVANIA

CITY           SKY/WX    TMP DP  RH WIND       PRES   REMARKS
SCRANTON       SUNNY     62  57  83 E5        29.96R
MOUNT POCONO   CLOUDY    59  57  93 SW3       29.99R FOG
ALLENTOWN      FOG       62  60  93 CALM      29.96R VSB<1/4
QUAKERTOWN*    CLOUDY    59  59 100 CALM      29.98R VSB<1/4
READING        CLOUDY    65  61  87 CALM      29.94S FOG
LANCASTER      CLOUDY    61  61 100 CALM      29.95R FOG
COATESVILLE    PTSUNNY   63  63 100 SE3       29.97R FOG
POTTSTOWN      CLOUDY    62  61  96 CALM      29.97S FOG
BLUE BELL        N/A     63  61  94 CALM      29.95S
DOYLESTOWN     MOSUNNY   60  60 100 CALM      29.95S
WILLOW GROVE   NOT AVBL
NORTH PHILA    PTSUNNY   65  55  70 SE6       29.97F
PHILADELPHIA   PTSUNNY   66  62  87 E3        29.95F
$$



USA.gov is the U.S. government's official web portal to all federal, state and local government web resources and services.